EW7112 Weather Reports


time (UTC)temp
C
wind
direction
speed
KPH
gust
KPH
rain 1hr
cm
rain 24hr
cm
rain mn
cm
humidity
%
barometer
mb
20260902173015 34 359 4.8 9.7 0.00 0.00 0.00 48 993.0
20260902171505 33 101 4.8 9.7 0.00 0.00 0.00 50 993.2
20260902170004 33 109 3.2 11.3 0.00 0.00 0.00 53 993.3
20260902164500 33 237 1.6 8.0 0.00 0.00 0.00 51 993.5
20260902163102 32 141 3.2 11.3 0.00 0.00 0.00 54 993.6
20260902161554 32 134 3.2 6.4 0.00 0.00 0.00 55 993.7
20260902160059 32 78 3.2 12.9 0.00 0.00 0.00 56 993.8
20260902154550 32 360 1.6 9.7 0.00 0.00 0.00 56 993.7
20260902153053 31 160 0.0 8.0 0.00 0.00 0.00 58 993.7
20260902151545 31 115 1.6 6.4 0.00 0.00 0.00 60 993.7
20260902150042 30 238 1.6 6.4 0.00 0.00 0.00 62 993.7
20260902144540 30 322 1.6 4.8 0.00 0.00 0.00 62 993.6
20260902143037 29 258 3.2 8.0 0.00 0.00 0.00 63 993.8
20260902141534 29 184 3.2 6.4 0.00 0.00 0.00 65 993.7
20260902140032 28 126 3.2 9.7 0.00 0.00 0.00 65 993.7
20260902134535 28 78 3.2 9.7 0.00 0.00 0.00 66 993.7
20260902133030 27 122 3.2 8.0 0.00 0.00 0.00 69 993.6
20260902131538 27 136 0.0 4.8 0.00 0.00 0.00 70 993.5
20260902130025 27 136 0.0 4.8 0.00 0.00 0.00 71 993.3
20260902124519 27 69 1.6 4.8 0.00 0.00 0.00 71 993.1
20260902123016 27 117 0.0 6.4 0.00 0.00 0.00 72 993.1
20260902121514 27 113 1.6 4.8 0.00 0.00 0.00 71 992.9
20260902120010 27 127 0.0 3.2 0.00 0.00 0.00 70 992.9
20260902114513 27 127 0.0 1.6 0.00 0.00 0.00 70 992.7
20260902113006 27 127 0.0 4.8 0.00 0.00 0.00 70 992.8
20260902111506 27 104 1.6 4.8 0.00 0.00 0.00 69 992.9
20260902110007 27 160 1.6 3.2 0.00 0.00 0.00 68 993.0
20260902104504 27 160 0.0 0.0 0.00 0.00 0.00 68 992.8
20260902103001 27 160 0.0 0.0 0.00 0.00 0.00 67 992.8
20260902101603 27 160 0.0 0.0 0.00 0.00 0.00 66 992.8
20260902100059 28 160 0.0 1.6 0.00 0.00 0.00 66 992.8
20260902094557 28 160 0.0 3.2 0.00 0.00 0.00 66 992.7
20260902093101 28 231 0.0 3.2 0.00 0.00 0.00 65 992.7
20260902091553 28 131 0.0 0.0 0.00 0.00 0.00 63 992.7
20260902090052 28 131 0.0 1.6 0.00 0.00 0.00 62 992.7
20260902084552 29 139 1.6 6.4 0.00 0.00 0.00 62 992.7
20260902083050 29 104 1.6 6.4 0.00 0.00 0.00 61 992.8
20260902081547 29 110 1.6 6.4 0.00 0.00 0.00 62 992.8
20260902080046 29 214 0.0 4.8 0.00 0.00 0.00 62 992.8
20260902074554 30 230 0.0 11.3 0.00 0.00 0.00 61 992.7
20260902073042 30 124 1.6 6.4 0.00 0.00 0.00 60 992.8
20260902071541 30 124 1.6 4.8 0.00 0.00 0.00 60 992.8
20260902070039 30 79 1.6 8.0 0.00 0.00 0.00 59 992.9
20260902064543 30 103 3.2 11.3 0.00 0.00 0.00 59 992.9
20260902063038 30 166 4.8 14.5 0.00 0.00 0.00 58 992.6
20260902061553 30 197 3.2 17.7 0.00 0.00 0.00 58 992.7
20260902060037 31 94 6.4 12.9 0.00 0.00 0.00 57 992.4
20260902054529 31 92 3.2 8.0 0.00 0.00 0.00 57 992.3
20260902053030 31 134 1.6 6.4 0.00 0.00 0.00 56 992.2
20260902051528 31 160 4.8 14.5 0.00 0.00 0.00 55 992.2
20260902050026 31 113 4.8 12.9 0.00 0.00 0.00 54 992.2
20260902044525 32 120 4.8 16.1 0.00 0.00 0.00 53 992.2
20260902043022 32 101 1.6 4.8 0.00 0.00 0.00 52 992.0
20260902041523 32 148 0.0 3.2 0.00 0.00 0.00 51 991.8
20260902040022 32 148 0.0 4.8 0.00 0.00 0.00 50 991.8
20260902034521 32 148 0.0 4.8 0.00 0.00 0.00 50 991.8
20260902033020 32 148 0.0 4.8 0.00 0.00 0.00 50 991.9
20260902031520 33 109 1.6 4.8 0.00 0.00 0.00 49 991.7
20260902030021 33 110 1.6 6.4 0.00 0.00 0.00 48 991.5
20260902024520 33 108 1.6 3.2 0.00 0.00 0.00 48 991.3
20260902023018 33 112 1.6 4.8 0.00 0.00 0.00 47 991.0
20260902021518 33 110 1.6 4.8 0.00 0.00 0.00 46 990.9
20260902020019 34 108 1.6 4.8 0.00 0.00 0.00 46 990.7
20260902014518 34 102 1.6 4.8 0.00 0.00 0.00 45 990.5
20260902013016 34 113 1.6 4.8 0.00 0.00 0.00 44 990.3
20260902011519 35 113 1.6 4.8 0.00 0.00 0.00 43 990.2
20260902010017 35 91 1.6 9.7 0.00 0.00 0.00 42 990.1
20260902004514 35 99 3.2 6.4 0.00 0.00 0.00 41 990.2
20260902003013 35 102 3.2 9.7 0.00 0.00 0.00 41 990.2
20260902001511 36 174 0.0 8.0 0.00 0.00 0.00 41 990.2
20260902000013 36 176 1.6 11.3 0.00 0.00 0.00 41 990.3
20260901234510 36 127 1.6 11.3 0.00 0.00 0.00 40 990.5
20260901233008 37 135 4.8 16.1 0.00 0.00 0.00 38 990.5
20260901231510 37 122 4.8 12.9 0.00 0.00 0.00 38 990.5
20260901230005 37 145 6.4 9.7 0.00 0.00 0.00 38 990.5
20260901224504 37 83 1.6 8.0 0.00 0.00 0.00 37 990.6
20260901223002 37 114 1.6 11.3 0.00 0.00 0.00 38 990.6
20260901221616 38 96 4.8 16.1 0.00 0.00 0.00 37 990.6
20260901220113 37 187 6.4 12.9 0.00 0.00 0.00 37 990.7
20260901214557 37 103 3.2 14.5 0.00 0.00 0.00 38 990.9
20260901213053 37 77 1.6 19.3 0.00 0.00 0.00 35 990.9
20260901211551 38 1 3.2 11.3 0.00 0.00 0.00 34 991.0
20260901210048 38 113 6.4 14.5 0.00 0.00 0.00 36 991.2
20260901204546 37 222 4.8 11.3 0.00 0.00 0.00 38 991.4
20260901203045 37 83 6.4 16.1 0.00 0.00 0.00 38 991.5
20260901201539 37 19 4.8 11.3 0.00 0.00 0.00 38 991.8
20260901200040 37 117 4.8 11.3 0.00 0.00 0.00 40 992.0
20260901194534 37 180 4.8 11.3 0.00 0.00 0.00 40 992.2
20260901184523 36 200 3.2 14.5 0.00 0.00 0.00 44 993.0
20260901183023 35 210 3.2 11.3 0.00 0.00 0.00 45 993.3
20260901181523 36 86 4.8 17.7 0.00 0.00 0.00 45 993.5
20260901180018 35 118 1.6 6.4 0.00 0.00 0.00 47 993.7
20260901174515 35 226 3.2 11.3 0.00 0.00 0.00 46 993.9